Location: Unspecified
(0.0000°N, 0.0000°E)
Time: 22:47:58
(UTC+00:00)

Hubble Space Telescope - Pass Details

Date: 08 December 2025
Orbit: 480 x 483 km, 28.5° (Epoch: 08 December)

Event Time Altitude Azimuth Distance (km) Brightness Sun altitude
Exits shadow 04:34:14 15° 225° (SW) 1,355 2.6 -17.8°
Maximum altitude 04:35:07 16° 208° (SSW) 1,305 2.7 -17.6°
Drops below altitude 10° 04:37:33 10° 168° (SSE) 1,644 3.7 -17.1°
Sets 04:40:24 0° 146° (SE) 2,524 5.2 -16.4°
